Retour au catalogue

TITAN 3C TRANSTAGE DEB

ActifMEO
NORAD 43515·DEBRIS·🇺🇸 United States

Lancé Feb 9, 1969 depuis Cape Canaveral Space Force Station

Loading…

Prochains Passages (prochaines 24 heures)

TLE

VieillissantSource: Space-Track

Époque: Aug 29, 2026, 18:51 UTC

1 43515U 69013T   26241.78575905 -.00000184  00000-0  00000-0 0  9992
2 43515   1.9912  60.0111 0329603 146.7752 216.1539  0.95443792 28927

Suivez TITAN 3C TRANSTAGE DEB en temps réel avec AllMySat

Download on the App Store